(193674) = 2001 DT99

Discovered at Haleakala on 2001-02-17 by NEAT.

Orbit

Orbit type: Main Belt

Note: WebGL enabled browser required.

epoch2024-03-31.0
epoch JD2460400.5
perihelion date2019-09-24.58535
perihelion JD2458751.08535
argument of perihelion (°)243.07003
ascending node (°)256.17016
inclination (°)7.15398
eccentricity0.2338560
perihelion distance (AU)2.1432968
Tisserand w.r.t. Jupiter3.3
ΔV w.r.t. Earth (km/sec)9.5
semimajor axis (AU)2.7975117
mean anomaly (°)347.43681
mean daily motion (°/day)0.21064250
aphelion distance (AU)3.452
period (years)4.68
P-vector [x]-0.75071374
P-vector [y]0.64165794
P-vector [z]0.15717497
Q-vector [x]-0.64946578
Q-vector [y]-0.67328738
Q-vector [z]-0.35338125
absolute magnitude16.04
phase slope0.15
uncertainty0
referenceMPEC 2024-D45
observations used556
oppositions16
arc length (days)8891
first opposition used1999
last opposition used2024
residual rms (arc-secs)0.70
perturbers coarse indicatorM-v
perturbers precise indicator003Ek
first observation date used1999-10-13.0
last observation date used2024-02-15.0
computer nameMPCLINUX
JD of orbit computation2456937.330117
perihelion JD uncertainty (days)1.0820E-04
argument of perihelion uncertainty (°)7.8179E-05
ascending node uncertainty (°)7.5340E-05
inclination uncertainty (°)7.6384E-06
eccentricity uncertainty 8.3465E-08
perihelion distance uncertainty (AU)2.4279E-07
Minimum Orbit Intersection Distances (in AU)
for orbit epoch: 2460400.5, reference: E2024-D45
Mercury1.80783
Venus1.43894
Earth1.16848
Mars0.55504
Jupiter1.67645
Saturn6.35278
Uranus16.1831
Neptune26.6256

Observations

564 total observations over interval: 1999 10 13.25859 – 2024 02 15.74049
These data are available for download (format description).

Date (UT) J2000 RA J2000 Dec Magn Location Ref
1999 10 13.25859 00 39 39.75 +14 21 27.9 20.2   704 – Lincoln Laboratory ETS, New Mexico MPS 120408
1999 10 13.25920 00 39 39.71 +14 21 27.9 20.0   704 – Lincoln Laboratory ETS, New Mexico MPS 120408
1999 10 13.27481 00 39 38.83 +14 21 21.7 20.1   704 – Lincoln Laboratory ETS, New Mexico MPS 120408
1999 10 13.27558 00 39 38.90 +14 21 21.9 20.6   704 – Lincoln Laboratory ETS, New Mexico MPS 120408
1999 10 13.29106 00 39 38.04 +14 21 14.8 20.3   704 – Lincoln Laboratory ETS, New Mexico MPS 120408
1999 10 13.30674 00 39 37.28 +14 21 08.9 19.7   704 – Lincoln Laboratory ETS, New Mexico MPS 120408
1999 10 13.30734 00 39 37.31 +14 21 10.5 20.2   704 – Lincoln Laboratory ETS, New Mexico MPS 120408
2001 01 17.53312 10 10 41.96 -00 03 10.6 19.1   608 – Haleakala-AMOS MPS 33315
2001 01 17.54349 10 10 41.69 -00 03 12.9 19.2   608 – Haleakala-AMOS MPS 33315
2001 01 17.55481 10 10 41.42 -00 03 15.6 19.2   608 – Haleakala-AMOS MPS 33315
2001 01 30.31697 10 03 59.44 -00 34 18.9 18.2   704 – Lincoln Laboratory ETS, New Mexico MPS 33315
2001 01 30.33182 10 03 58.78 -00 34 19.1 19.0   704 – Lincoln Laboratory ETS, New Mexico MPS 33315
2001 01 30.34854 10 03 58.13 -00 34 20.1 18.9   704 – Lincoln Laboratory ETS, New Mexico MPS 33315
2001 01 30.36451 10 03 57.47 -00 34 20.8 19.2   704 – Lincoln Laboratory ETS, New Mexico MPS 33315
2001 01 30.37957 10 03 56.68 -00 34 22.8 18.7   704 – Lincoln Laboratory ETS, New Mexico MPS 33315
2001 01 30.47855 10 03 52.74 -00 34 23.7 19.0   608 – Haleakala-AMOS MPS 33315
2001 01 30.48937 10 03 52.28 -00 34 23.9 19.2   608 – Haleakala-AMOS MPS 33315
2001 01 30.53859 10 03 50.09 -00 34 27.0 19.1   608 – Haleakala-AMOS MPS 33315
2001 02 17.41707 09 49 36.51 -00 14 05.6 18.6   608 – Haleakala-AMOS MPS 28105
2001 02 17.42821 09 49 35.92 -00 14 03.6 18.6   608 – Haleakala-AMOS MPS 28105
2001 02 17.43965 09 49 35.35 -00 14 01.1 18.4   608 – Haleakala-AMOS MPS 28105
2001 02 22.30881 09 45 33.60 +00 02 13.6 18.0   704 – Lincoln Laboratory ETS, New Mexico MPS 28105
2001 02 22.32267 09 45 32.94 +00 02 16.3 18.4   704 – Lincoln Laboratory ETS, New Mexico MPS 28105
2001 02 22.33640 09 45 32.15 +00 02 19.4 18.3   704 – Lincoln Laboratory ETS, New Mexico MPS 28105
2001 02 22.35044 09 45 31.42 +00 02 22.3 18.5   704 – Lincoln Laboratory ETS, New Mexico MPS 28105
2001 02 22.36563 09 45 30.77 +00 02 26.0 18.6   704 – Lincoln Laboratory ETS, New Mexico MPS 28105
2001 03 15.33390 09 32 40.76 +01 36 07.3 20.2   608 – Haleakala-AMOS MPS 32826
2001 03 15.34587 09 32 40.48 +01 36 10.6 19.1   608 – Haleakala-AMOS MPS 32826
2001 03 15.35788 09 32 40.19 +01 36 13.9 19.8   608 – Haleakala-AMOS MPS 32826
2001 03 23.13285 09 30 52.10 +02 10 42.4 18.9 R 699 – Lowell Observatory-LONEOS MPS 32826
2001 03 23.14529 09 30 51.97 +02 10 44.8   699 – Lowell Observatory-LONEOS MPS 32826
2001 03 23.15774 09 30 51.85 +02 10 48.7   699 – Lowell Observatory-LONEOS MPS 32826
2001 03 23.17020 09 30 51.81 +02 10 53.3   699 – Lowell Observatory-LONEOS MPS 32826
2004 10 21.29369 02 55 10.73 +23 27 37.1 20.4   704 – Lincoln Laboratory ETS, New Mexico MPS 119813
2004 10 21.30543 02 55 10.18 +23 27 35.3 20.5   704 – Lincoln Laboratory ETS, New Mexico MPS 119813
2004 10 21.31722 02 55 09.57 +23 27 31.6 19.9   704 – Lincoln Laboratory ETS, New Mexico MPS 119813
2004 11 09.36898 02 38 19.90 +21 43 44.9 19.0 R 703 – Catalina Sky Survey MPS 119813
2004 11 09.38269 02 38 19.18 +21 43 39.6 18.4 R 703 – Catalina Sky Survey MPS 119813
2004 11 09.39627 02 38 18.33 +21 43 34.3 19.1 R 703 – Catalina Sky Survey MPS 119813
2004 11 09.40986 02 38 17.55 +21 43 28.5 19.0 R 703 – Catalina Sky Survey MPS 119813
2006 03 24.38257 13 37 11.13 -20 51 54.2 19.2 V 703 – Catalina Sky Survey MPS 166938
2006 03 24.38851 13 37 10.88 -20 51 53.9 19.1 V 703 – Catalina Sky Survey MPS 166938
2006 03 24.39443 13 37 10.70 -20 51 52.5 19.3 V 703 – Catalina Sky Survey MPS 166938
2006 03 24.40037 13 37 10.41 -20 51 52.4 18.9 V 703 – Catalina Sky Survey MPS 166938
2006 03 25.38850 13 36 30.83 -20 48 18.3 19.1 R 644 – Palomar Mountain/NEAT MPS 166938
2006 03 25.40887 13 36 29.94 -20 48 13.8 18.5 R 644 – Palomar Mountain/NEAT MPS 166938
2006 03 25.42919 13 36 29.06 -20 48 09.4 18.4 R 644 – Palomar Mountain/NEAT MPS 166938
2006 03 27.63608 13 34 56.46 -20 39 16.7 19.0 V E12 – Siding Spring Survey MPS 166938
2006 03 27.64465 13 34 56.13 -20 39 14.4 18.7 V E12 – Siding Spring Survey MPS 166938
2006 03 27.65317 13 34 55.74 -20 39 12.5 18.4 V E12 – Siding Spring Survey MPS 166938
2006 03 27.66168 13 34 55.34 -20 39 09.8 19.0 V E12 – Siding Spring Survey MPS 166938
2006 04 09.54298 13 24 42.22 -19 27 55.0 19.0 V E12 – Siding Spring Survey MPS 168780
2006 04 09.55857 13 24 41.47 -19 27 49.3 19.1 V E12 – Siding Spring Survey MPS 168780
2006 04 09.57414 13 24 40.68 -19 27 42.4 18.9 V E12 – Siding Spring Survey MPS 168780
2006 04 09.58948 13 24 39.85 -19 27 36.5 18.9 V E12 – Siding Spring Survey MPS 168780
2006 04 30.20564 13 08 58.16 -16 51 40.1 19.2 V 703 – Catalina Sky Survey MPS 170750
2006 04 30.21267 13 08 57.91 -16 51 37.2 19.1 V 703 – Catalina Sky Survey MPS 170750
2006 04 30.21968 13 08 57.55 -16 51 33.5 19.5 V 703 – Catalina Sky Survey MPS 170750
2006 04 30.22669 13 08 57.33 -16 51 30.7 19.0 V 703 – Catalina Sky Survey MPS 170750
2008 10 20.18226 22 49 09.41 +02 37 17.8   291 – LPL/Spacewatch II MPS 260494
2008 10 20.18614 22 49 09.33 +02 37 17.0   291 – LPL/Spacewatch II MPS 260494
2008 10 20.18994 22 49 09.26 +02 37 15.9   291 – LPL/Spacewatch II MPS 260494
2008 10 29.18694 22 47 04.12 +01 58 57.8 20.7 V G96 – Mt. Lemmon Survey MPS 261282
2008 10 29.19449 22 47 04.09 +01 58 56.4 21.3 V G96 – Mt. Lemmon Survey MPS 261282
2008 10 29.20210 22 47 04.02 +01 58 54.5 21.1 V G96 – Mt. Lemmon Survey MPS 261282
2008 10 29.20973 22 47 03.91 +01 58 52.5 21.4 V G96 – Mt. Lemmon Survey MPS 261282
2009 12 17.24009 05 42 30.65 +21 28 15.9 19.3   704 – Lincoln Laboratory ETS, New Mexico MPS 308467
2009 12 17.25235 05 42 29.88 +21 28 13.8 19.4   704 – Lincoln Laboratory ETS, New Mexico MPS 308467
2009 12 17.26461 05 42 29.11 +21 28 11.3 19.6   704 – Lincoln Laboratory ETS, New Mexico MPS 308467
2009 12 17.27693 05 42 28.35 +21 28 06.4 19.3   704 – Lincoln Laboratory ETS, New Mexico MPS 308467
2009 12 17.28921 05 42 27.59 +21 28 03.9 19.4   704 – Lincoln Laboratory ETS, New Mexico MPS 308467
2010 01 04.08407 05 25 34.05 +20 11 06.4   691 – Steward Observatory, Kitt Peak-Spacewatch MPS 310049
2010 01 04.11417 05 25 32.54 +20 10 59.5   691 – Steward Observatory, Kitt Peak-Spacewatch MPS 310049
2010 01 04.14081 05 25 31.18 +20 10 53.1   691 – Steward Observatory, Kitt Peak-Spacewatch MPS 310049
2010 02 20.24972 05 22 08.86 +18 28 36.6 19.5 V G96 – Mt. Lemmon Survey MPS 316380
2010 02 20.25403 05 22 09.04 +18 28 36.3 20.1 V G96 – Mt. Lemmon Survey MPS 316380
2010 02 20.25844 05 22 09.22 +18 28 35.9 19.9 V G96 – Mt. Lemmon Survey MPS 316380
2010 02 20.26284 05 22 09.44 +18 28 36.1 20.8 V G96 – Mt. Lemmon Survey MPS 316380
2010 03 10.118503 05 39 04.34 +18 25 58.2   C51 – WISE MPS 319098
2010 03 10.250808 05 39 13.61 +18 25 58.0   C51 – WISE MPS 319098
2010 03 10.383112 05 39 22.93 +18 25 57.7   C51 – WISE MPS 319098
2010 03 10.515416 05 39 32.21 +18 25 57.2   C51 – WISE MPS 337059
2010 03 10.647720 05 39 41.57 +18 25 57.5   C51 – WISE MPS 319098
2010 03 10.713935 05 39 46.26 +18 25 57.0   C51 – WISE MPS 319098
2010 03 10.780152 05 39 50.95 +18 25 57.0   C51 – WISE MPS 319098
2010 03 10.846240 05 39 55.64 +18 25 56.6   C51 – WISE MPS 337059
2010 03 10.912455 05 40 00.31 +18 25 56.5   C51 – WISE MPS 319098
2010 03 10.978544 05 40 05.05 +18 25 56.3   C51 – WISE MPS 337059
2010 03 11.110847 05 40 14.48 +18 25 56.4   C51 – WISE MPS 319098
2010 03 11.110975 05 40 14.47 +18 25 56.0   C51 – WISE MPS 319098
2010 03 11.24328 05 40 23.90 +18 25 55.4   C51 – WISE MPS 337059
2010 03 11.375582 05 40 33.39 +18 25 55.6   C51 – WISE MPS 319098
2010 03 11.507887 05 40 42.90 +18 25 55.4   C51 – WISE MPS 337059
2011 05 22.33616 16 08 04.45 -23 40 35.6 19.4 V G96 – Mt. Lemmon Survey MPS 383871
2011 05 22.34414 16 08 03.98 -23 40 33.4 19.8 V G96 – Mt. Lemmon Survey MPS 383871
2011 05 22.35220 16 08 03.51 -23 40 31.0 19.3 V G96 – Mt. Lemmon Survey MPS 383871
